User: anonymous   Login
Location: Bogis-Bossey
(46.3500°N, 6.1667°E)
Time: 08:15:35
(UTC+00:00)
Language:

NOSS 3-1 (C) - Orbit

View from above orbital plane
View from above orbital plane
View from above satellite
View from above satellite

Ground track
Ground track

The orbit data is extracted from the following two-line orbital elements,

1 26907U 01040C   22320.19411170 0.00000100  00000-0  76432-4 0    02
2 26907  63.4050   3.6237 0535796   5.2099 354.7901 13.41388593    09
Epoch (UTC): 16 November 2022 04:39:31
Eccentricity: 0.0535796
inclination: 63.4050°
perigee height: 703 km
apogee height: 1505 km
right ascension of ascending node: 3.6237°
argument of perigee: 5.2099°
revolutions per day: 13.41388593
mean anomaly at epoch: 354.7901°
orbit number at epoch: 0

The dashed part of the orbit path shows where the satellite is in the earth's shadow,  

DLR